Location: *
(47.6569°N, 7.4256°E)
Time: 16:36:42
(UTC+00:00)

Meteor 2-9 Rocket - Pass Details

Date: 14 December 2019
Orbit: 791 x 895 km, 81.3° (Epoch: 27 January)

Event Time Altitude Azimuth Distance (km) Brightness Sun altitude
Rises 17:40:27 0° 348° (NNW) 3,523 7.4 -19.5°
Reaches altitude 10° 17:42:56 10° 349° (N) 2,575 6.7 -19.9°
Maximum altitude 17:48:50 85° 78° (ENE) 895 4.2 -20.8°
Drops below altitude 10° 17:54:36 10° 168° (SSE) 2,514 6.7 -21.8°
Sets 17:56:59 0° 169° (S) 3,433 7.4 -22.2°
